This is the latest recevied weather packets stored in our database for station/object DO7CRZ-12. If no packets are shown the sender has not sent any weather packets the latest 10 day(s).
| Time | Temp. | Humidity | Pressure | Rain* | Wind** | Luminosity | Snow |
|---|---|---|---|---|---|---|---|
| 1777700249 | 11.67° C | 63% | 1024.6 hPa | 0 mm | - | 17 W/m² | - |
| 1777699647 | 11.11° C | 64% | 1024.6 hPa | 0 mm | - | 17 W/m² | - |
| 1777699043 | 10.56° C | 66% | 1024.5 hPa | 0 mm | - | 14 W/m² | - |
| 1777698441 | 10.56° C | 65% | 1024.5 hPa | 0 mm | - | 14 W/m² | - |
| 1777697838 | 10.56° C | 65% | 1024.4 hPa | 0 mm | - | 13 W/m² | - |
| 1777697235 | 10° C | 64% | 1024.3 hPa | 0 mm | - | 12 W/m² | - |
| 1777696647 | 10° C | 64% | 1024.5 hPa | 0 mm | - | 11 W/m² | - |
| 1777696045 | 10.56° C | 63% | 1024.3 hPa | 0 mm | - | 9 W/m² | - |
| 1777694236 | 10.56° C | 60% | 1024.5 hPa | 0 mm | - | 5 W/m² | - |
| 1777693648 | 11.11° C | 58% | 1024.4 hPa | 0 mm | - | 2 W/m² | - |
| 1777693045 | 11.11° C | 60% | 1024.5 hPa | 0 mm | - | 0 W/m² | - |
| 1777692443 | 10.56° C | 63% | 1024.4 hPa | 0 mm | - | 0 W/m² | - |
| 1777691840 | 10° C | 65% | 1024.6 hPa | 0 mm | - | 0 W/m² | - |
| 1777691237 | 10° C | 67% | 1024.7 hPa | 0 mm | - | 0 W/m² | - |
| 1777690649 | 10° C | 67% | 1024.6 hPa | 0 mm | - | 0 W/m² | - |
| 1777690046 | 10° C | 68% | 1024.7 hPa | 0 mm | - | 0 W/m² | - |
| 1777689444 | 9.44° C | 69% | 1024.8 hPa | 0 mm | - | 0 W/m² | - |
| 1777688841 | 9.44° C | 70% | 1024.8 hPa | 0 mm | - | 0 W/m² | - |
| 1777688238 | 9.44° C | 71% | 1024.7 hPa | 0 mm | - | 0 W/m² | - |
| 1777687635 | 10° C | 69% | 1024.7 hPa | 0 mm | - | 0 W/m² | - |
| 1777687048 | 10° C | 66% | 1024.8 hPa | 0 mm | - | 0 W/m² | - |
| 1777686445 | 10.56° C | 65% | 1024.8 hPa | 0 mm | - | 0 W/m² | - |
| 1777685842 | 10.56° C | 64% | 1024.8 hPa | 0 mm | - | 0 W/m² | - |
| 1777685239 | 11.11° C | 63% | 1024.8 hPa | 0 mm | - | 0 W/m² | - |
| 1777684636 | 11.11° C | 63% | 1024.9 hPa | 0 mm | - | 0 W/m² | - |
* Rain latest hour (hover to see other rain measurements)
** Current wind speed in m/s (hover to see current wind gust speed)